Theta_e
308 310 312 311 309 307 307 309 310 308 309 311 310 310 311 308 305 306 306 306 306 305 306 306 307 308 307 307 308 308 310 311 313 312 314 318 319 321 323 324 326 329 329 327
309 311 309 308 308 310 309 311 311 308 308 310 310 311 310 308 308 308 310 309 307 307 304 303 304 305 305 306 307 308 309 311 312 312 314 315 316 318 323 321 323 325 326 326
310 310 308 310 309 310 310 310 310 311 310 308 308 310 309 308 308 308 307 308 309 308 308 304 300 302 303 304 306 307 308 310 311 313 314 314 316 317 316 317 319 321 321 318
309 309 310 310 311 310 311 308 309 311 312 312 309 312 310 309 309 308 308 307 307 307 305 303 300 300 302 304 305 306 307 310 311 312 313 315 314 312 313 316 317 318 318 319
311 310 311 311 311 309 311 308 309 310 311 310 311 313 312 309 310 310 311 310 309 304 303 302 300 302 302 302 303 305 307 309 309 311 312 313 313 313 315 314 313 313 313 313
310 308 310 311 310 309 307 309 309 307 309 315 310 312 311 310 310 310 309 309 307 304 303 300 301 301 301 302 303 304 306 308 308 310 311 312 311 311 311 309 309 307 307 309
311 310 310 309 311 309 310 312 312 310 313 315 308 311 311 309 306 308 309 309 305 305 303 300 298 298 300 301 302 303 306 307 306 308 309 310 310 312 312 312 309 306 304 304
311 310 310 308 310 312 310 311 312 309 310 309 309 313 312 308 307 306 304 304 304 305 302 300 298 298 300 301 302 304 305 306 304 307 307 306 307 309 308 309 308 307 306 304
310 310 308 308 309 310 310 313 309 311 296 308 309 308 308 307 307 307 307 306 304 304 302 300 297 299 300 301 302 304 305 304 304 306 306 304 305 305 304 304 304 301 301 300
310 312 309 309 309 309 309 308 312 309 311 309 311 311 312 313 311 310 308 307 305 303 302 299 297 298 300 301 302 304 305 303 302 304 306 303 303 302 302 302 301 299 297 295
309 310 310 309 309 310 311 311 310 310 310 312 312 317 307 310 309 309 309 308 306 304 302 299 297 298 300 301 302 304 303 302 302 303 305 303 302 301 300 301 300 298 294 290
309 311 310 310 308 306 308 310 310 313 311 310 311 317 308 310 309 308 310 308 306 303 300 298 296 297 298 300 301 303 303 302 303 303 304 302 301 298 297 296 296 295 293 289
313 315 312 315 312 308 310 309 310 309 308 312 314 318 306 307 309 308 309 308 304 303 300 297 295 295 296 297 299 300 302 301 301 301 301 299 297 296 296 296 296 295 292 288
315 314 315 320 316 311 311 309 310 313 316 315 314 316 313 310 311 308 308 305 304 302 299 297 294 294 295 296 298 298 299 300 300 299 298 298 295 295 295 295 295 293 290 288
317 319 315 315 314 312 311 311 311 313 313 315 316 314 314 311 310 311 312 306 304 302 299 298 296 294 294 295 295 296 297 298 297 297 296 296 296 295 293 292 291 291 289 287
314 318 317 319 317 313 316 314 310 311 312 313 313 314 314 313 309 309 310 309 306 303 302 301 298 295 294 294 295 295 295 295 295 295 295 294 294 293 292 291 289 288 287 285
313 311 315 321 314 316 318 317 316 317 312 312 314 313 313 313 312 312 312 309 306 305 304 303 300 298 297 297 296 294 294 294 293 293 293 293 292 291 290 289 287 286 284 284
311 311 313 319 316 321 316 312 315 317 317 316 316 314 314 313 310 310 307 306 305 304 304 303 301 300 300 300 297 295 294 293 292 291 291 291 291 290 288 287 286 285 284 283
312 314 316 317 317 317 316 309 310 314 316 314 315 315 314 313 309 309 304 304 305 303 301 299 299 298 299 299 297 294 292 291 290 290 290 290 290 288 287 286 285 284 283 282
310 312 314 316 317 317 312 308 305 310 318 310 312 313 313 308 309 313 301 298 298 295 295 294 294 295 296 296 294 292 290 289 288 289 289 289 289 289 287 286 284 283 282 281
312 313 315 316 316 315 306 299 304 317 314 296 305 310 310 309 308 302 297 296 294 294 293 292 292 291 291 292 291 290 289 288 289 288 289 288 288 288 287 285 283 282 282 282
306 309 312 315 316 318 298 303 311 302 298 294 299 303 304 303 299 298 297 296 294 293 291 290 289 288 289 290 290 288 288 288 288 288 288 287 287 286 285 284 282 282 282 282
309 305 309 309 309 301 299 300 297 295 295 297 296 297 298 297 296 296 296 294 292 290 288 287 287 287 287 289 290 287 287 287 287 287 286 286 285 285 285 284 283 282 282 281
304 301 306 306 306 303 302 300 296 296 295 295 292 294 294 296 293 294 290 292 291 286 287 287 287 286 286 287 288 288 287 287 286 286 285 285 285 284 284 283 283 283 283 282
300 301 302 301 300 299 300 298 300 299 294 293 291 290 291 293 290 291 288 286 287 286 288 288 287 286 286 287 287 287 287 287 286 286 285 285 285 285 284 284 284 284 283 283
297 298 301 300 298 299 300 296 295 297 296 293 292 291 289 290 290 287 285 284 284 285 286 285 284 283 283 285 286 287 287 288 288 287 286 286 285 285 285 284 284 284 284 284
Wind_Speed
3 4 6 13 7 3 5 4 4 5 4 4 8 11 16 8 6 12 14 14 15 16 23 24 33 35 33 31 30 29 27 26 25 24 23 24 26 26 26 26 27 30 29 30
4 6 11 6 6 4 3 3 5 6 3 6 9 15 14 10 9 12 17 16 18 16 9 15 27 33 37 37 34 32 32 30 29 27 27 24 27 24 23 26 24 27 30 34
8 5 4 7 4 6 4 6 5 7 3 4 5 8 8 6 11 13 14 19 17 18 17 11 17 29 34 39 41 39 36 34 31 29 29 23 24 21 24 25 27 27 28 31
6 4 6 4 5 8 6 8 5 3 2 4 1 7 7 6 10 7 13 14 20 16 12 6 13 23 34 42 40 39 36 36 33 33 32 34 29 23 28 31 29 29 30 30
8 9 6 5 7 7 6 5 6 3 3 4 1 4 4 1 7 15 16 19 15 9 9 10 13 25 30 32 38 37 33 34 35 35 34 34 30 29 27 30 29 29 30 29
2 1 5 7 3 5 10 6 5 4 2 5 10 8 4 6 8 6 8 12 6 6 7 7 13 19 22 28 32 35 33 34 35 36 35 35 34 33 30 32 31 30 29 29
2 5 3 3 6 3 3 6 2 3 0 9 3 3 7 9 9 9 12 10 3 2 1 4 5 9 16 23 28 29 30 31 34 36 36 36 36 36 35 36 36 34 33 33
9 8 11 7 9 8 9 8 6 8 4 5 2 7 7 10 11 11 8 6 3 4 5 5 6 10 16 21 26 26 26 26 30 34 34 33 34 35 36 37 41 40 40 39
6 6 1 3 2 9 6 6 4 2 2 2 5 8 7 9 12 9 12 1 7 8 6 7 6 12 16 20 25 28 26 27 34 36 33 33 34 34 36 36 40 41 41 41
4 3 1 1 3 2 5 6 3 2 3 5 6 6 8 5 9 12 6 9 9 7 6 5 5 10 15 19 23 26 26 28 33 33 34 34 34 34 34 35 39 40 40 40
5 4 2 3 6 10 3 4 2 4 5 5 4 11 8 8 7 8 6 4 4 5 5 5 5 7 13 16 20 25 27 31 34 36 34 35 36 36 36 37 39 42 42 41
7 3 5 9 2 2 1 5 7 4 5 4 2 18 3 2 3 3 2 3 2 3 4 4 4 7 13 19 22 28 31 34 35 36 35 37 37 36 36 37 38 41 41 41
9 2 1 5 2 2 5 6 7 4 3 9 6 16 4 1 4 4 2 4 4 3 4 3 3 7 14 19 22 28 32 33 34 34 34 35 37 38 38 39 39 40 41 43
8 7 8 10 5 6 6 7 14 15 8 13 17 30 11 3 3 6 5 6 7 6 6 5 6 6 16 20 23 28 31 34 36 36 34 37 38 39 38 39 39 41 44 47
10 10 11 14 1 2 5 7 14 19 28 14 32 20 27 11 7 13 15 5 9 8 7 9 8 7 14 18 23 26 30 34 35 36 35 37 39 39 37 37 39 40 43 48
8 4 8 18 15 9 6 7 11 20 22 19 25 26 19 16 4 7 15 13 9 9 10 10 8 8 12 21 25 28 29 32 36 35 38 38 40 38 37 38 38 39 44 47
6 4 2 9 5 8 10 29 21 15 8 17 19 34 26 21 17 19 22 15 11 10 10 8 9 10 17 22 25 27 26 29 33 35 34 37 38 38 38 38 37 38 40 44
5 4 4 6 6 13 11 4 22 28 20 20 20 25 22 18 9 15 9 8 10 9 8 8 6 10 18 20 22 24 24 29 31 30 29 32 35 34 34 34 36 36 38 43
14 11 9 6 9 10 13 3 7 11 19 24 23 28 28 24 2 17 8 6 3 2 3 6 10 14 17 16 16 19 22 25 27 28 30 33 34 31 31 32 33 34 35 37
17 17 14 13 14 15 9 4 2 4 13 13 17 23 25 5 5 13 5 3 1 4 4 6 8 6 6 7 8 14 18 20 21 24 26 29 30 31 32 31 30 28 29 26
5 9 18 19 17 8 5 5 6 9 10 4 9 18 13 8 6 2 2 3 2 2 3 3 3 6 4 3 9 12 13 17 17 17 19 21 24 28 29 27 25 25 26 26
7 5 5 4 11 19 3 3 9 3 7 3 4 4 4 3 4 2 2 1 1 2 3 3 7 8 7 8 10 11 11 10 11 13 16 18 22 24 23 24 23 24 26 26
5 5 3 4 3 2 5 7 7 4 4 5 6 4 3 5 5 5 3 4 2 2 3 5 10 12 11 9 8 11 10 11 14 16 18 19 20 21 24 26 26 24 24 25
4 4 4 3 3 9 14 7 6 7 6 6 6 6 4 4 5 3 1 2 1 1 4 7 13 14 13 10 8 12 12 12 15 15 16 17 19 18 20 22 24 26 30 27
3 3 3 4 6 5 8 9 13 7 6 5 3 6 8 4 2 3 4 4 4 4 6 9 13 14 14 14 15 13 11 12 14 14 15 16 16 17 19 18 21 22 23 23
5 5 3 7 10 6 10 4 8 6 8 8 10 9 5 2 4 3 2 3 4 7 12 15 16 18 15 16 15 13 11 10 12 13 13 14 14 14 15 16 13 13 16 16
Wind_Direction
13 99 194 216 187 132 138 178 211 239 238 193 238 252 264 259 241 264 255 249 249 241 249 238 236 227 220 219 216 214 210 208 207 203 195 201 203 205 212 218 216 207 206 204
53 213 229 109 158 159 160 172 245 285 238 188 269 261 259 249 242 230 244 252 246 243 238 222 223 223 218 216 214 211 212 210 208 208 198 198 195 194 201 200 202 211 208 206
179 195 128 153 156 164 205 184 209 227 319 242 324 280 254 277 253 254 251 247 255 240 243 224 200 211 213 214 214 213 211 211 209 205 202 199 195 200 200 200 198 197 200 195
227 205 146 169 191 156 240 203 166 171 79 254 110 286 280 237 252 251 255 243 245 243 241 216 195 204 212 217 214 214 209 212 209 205 204 204 197 192 204 202 199 193 194 194
232 170 169 174 200 160 222 131 160 146 191 349 188 266 234 7 270 256 254 253 253 233 228 225 204 216 218 212 212 209 206 207 210 207 209 208 208 206 203 203 198 194 188 189
243 352 175 195 125 159 146 86 57 53 83 275 185 187 231 184 213 262 263 266 293 256 240 245 233 226 217 217 207 203 200 201 208 209 209 210 210 208 199 196 195 192 189 186
138 207 194 158 87 45 164 116 292 322 34 243 160 228 255 261 218 225 250 273 77 55 283 243 213 197 197 198 198 195 195 197 204 207 210 211 212 212 207 200 199 192 188 185
190 255 166 190 187 168 202 167 171 207 210 266 197 237 247 233 254 255 265 270 188 223 252 247 225 212 197 200 199 194 198 199 200 207 213 212 216 215 213 206 203 199 194 190
172 260 236 132 126 153 193 205 175 76 80 350 230 287 285 259 279 260 255 257 239 254 246 236 218 208 205 203 201 197 195 200 201 205 211 214 216 215 211 210 206 198 195 192
219 293 40 78 123 39 167 168 79 349 192 251 260 263 235 259 245 256 263 245 243 232 235 238 222 209 212 212 210 202 201 202 203 204 212 215 217 217 217 211 205 203 199 193
158 144 259 128 210 170 138 207 114 142 160 185 293 267 207 229 244 256 269 277 256 227 244 238 225 218 217 212 210 202 203 203 206 209 210 214 216 217 216 213 210 206 201 195
198 157 220 211 223 195 347 212 162 164 223 246 178 264 134 219 335 299 236 356 316 178 201 234 234 216 219 203 205 207 206 208 212 212 211 215 216 213 213 211 210 207 202 198
162 186 34 317 32 335 216 200 200 116 84 217 162 258 336 51 42 354 226 265 260 208 177 211 217 218 226 211 208 210 209 210 213 212 211 213 214 212 213 214 213 210 204 200
117 169 191 222 203 143 184 199 196 200 213 231 231 251 237 154 70 315 286 268 269 245 231 237 244 228 227 219 214 215 214 213 213 211 209 210 211 214 214 214 212 209 204 200
172 215 206 239 311 204 205 182 198 208 228 216 249 241 253 244 261 273 292 237 228 233 236 237 235 220 224 226 226 225 223 215 211 208 205 207 214 217 216 214 214 211 206 203
324 287 208 250 234 218 257 240 215 217 233 240 257 265 252 254 254 268 253 258 257 234 235 239 230 227 227 227 226 223 220 215 212 206 208 208 212 213 214 214 212 210 206 202
205 196 251 253 189 195 232 235 217 221 204 214 237 246 260 263 247 253 259 253 250 243 237 239 234 232 237 239 235 224 217 217 210 207 207 209 209 206 207 212 210 205 202 201
192 192 230 260 165 235 256 189 212 217 225 215 246 257 253 247 248 244 241 219 234 238 260 267 265 262 264 261 250 241 225 217 209 206 206 207 210 207 205 204 205 202 200 200
216 217 254 257 252 293 296 229 156 189 242 233 232 249 259 264 252 268 200 234 254 283 281 279 290 286 284 272 251 226 208 207 203 201 203 207 210 202 202 199 200 201 196 197
221 223 229 240 243 252 244 204 199 127 253 211 209 238 248 170 213 259 157 133 285 304 290 298 307 307 295 278 232 204 200 203 201 205 209 211 208 205 204 206 202 199 197 194
201 218 222 233 243 248 247 168 151 185 250 218 204 225 252 199 220 123 120 171 206 230 309 346 55 69 67 138 174 176 188 201 216 209 208 208 208 206 206 199 193 190 190 192
196 203 244 256 243 241 30 81 170 290 312 307 249 205 184 161 164 221 200 146 4 8 18 52 96 87 98 129 151 153 168 186 197 193 194 192 191 192 190 188 181 187 190 193
264 215 203 206 255 179 188 192 231 191 228 298 310 267 117 146 195 184 182 155 116 92 101 105 110 99 98 119 131 135 149 163 164 171 172 176 182 183 184 182 181 183 192 188
208 216 238 336 247 275 304 272 209 192 200 291 288 279 189 173 178 174 141 162 189 33 91 120 121 105 97 110 115 130 142 155 155 160 160 165 169 174 181 186 192 184 187 189
242 157 250 241 271 305 269 259 265 259 188 214 310 306 291 186 183 189 171 158 154 138 112 126 119 104 100 109 107 113 133 143 141 151 159 164 171 178 181 192 196 199 207 204
187 201 235 268 277 252 273 333 326 264 241 221 183 212 231 3 141 105 93 92 117 119 125 119 117 111 104 107 106 117 140 148 144 150 163 168 170 178 180 179 169 200 220 215